Location: Unspecified
(40.9447°N, 78.9903°W)
Time: 00:49:14
(UTC-04:00)

Okean 3 - Pass Details

Date: 27 July 2021
Orbit: 574 x 601 km, 82.5° (Epoch: 19 September)

Event Time Altitude Azimuth Distance (km) Brightness Sun altitude
Rises 02:28:55 0° 352° (N) 2,853 7.9 -28.0°
Reaches altitude 10° 02:31:08 10° 353° (N) 1,943 6.9 -27.8°
Enters shadow 02:34:15 47° 356° (N) 789 4.3 -27.6°
